Home   Weather   Luckenwalde   Past weeks

Flag for Germany Past Weather in Luckenwalde, Brandenburg, Germany — Yesterday and Last 2 Weeks

Now
32 °F

Drizzle. Ice fog.


Feels Like: 32 °F
Forecast: 25 / 33 °F
Wind: 2 mph from Southwest

Location: Holzdorf

Current Time: Dec 6, 2016 at 7:17:06 pm

Latest Report: Dec 6, 2016 at 6:20 pm


Visibility: 2 mi

Pressure: 30.51 "Hg

Humidity: 100%

Dew Point: 32 °F

Location of LuckenwaldeLocation

Past Weather in Luckenwalde — Graph

°F

Luckenwalde Temperature Yesterday

Maximum temperature yesterday: 36 °F (at 1:20 pm)
Minimum temperature yesterday: 14 °F (at 7:20 am)
Average temperature yesterday: 23 °F

High & Low Weather Summary for the Past Weeks

 TemperatureHumidityPressure
High54 °F (Nov 22, 1:20 am)100% (Nov 22, 10:20 pm)30.57 "Hg (Nov 22, 10:20 pm)
Low14 °F (Dec 5, 7:20 am)60% (Nov 30, 11:20 am)29.74 "Hg (Nov 21, 5:20 pm)
Average34 °F91%30.20 "Hg
* Reported Nov 21 5:20 pm — Dec 6 5:20 pm, Luckenwalde, Weather by CustomWeather, © 2016

Note: Actual official high and low records may vary slightly from our data, if they occured in-between our weather recording intervals... More about our weather records

Advertising

Luckenwalde Weather History for the Previous 24 Hours

Scroll right to see more
 ConditionsComfort  
Time TempWeatherWind HumidityBarometerVisibility
5:20 pm
Tue, Dec 6
32 °FDrizzle. Ice fog.2 mph100%30.51 "Hg2 mi
5:00 pm32 °FDrizzle. Ice fog.3 mph100%30.51 "Hg2 mi
4:20 pm32 °FDrizzle. Ice fog.5 mph93%30.48 "Hg1 mi
3:20 pm32 °FDrizzle. Ice fog.5 mph93%30.48 "Hg1 mi
3:02 pm32 °FDrizzle. Ice fog.5 mph93%30.48 "Hg1 mi
2:20 pm32 °FDrizzle. Ice fog.5 mph93%30.45 "Hg2 mi
2:01 pm32 °FDrizzle. Ice fog.6 mph87%30.45 "Hg3 mi
1:20 pm32 °FPartly sunny.6 mph87%30.45 "Hg4 mi
12:20 pm32 °FBroken clouds.9 mph80%30.45 "HgN/A
11:20 am30 °FBroken clouds.7 mph86%30.45 "HgN/A
10:20 am30 °FPartly sunny.8 mph86%30.45 "HgN/A
9:20 am28 °FPartly sunny.6 mph86%30.42 "HgN/A
8:20 am27 °FPartly sunny.7 mph93%30.42 "HgN/A
7:20 am27 °FPassing clouds.5 mph93%30.39 "HgN/A
6:20 am25 °FPassing clouds.6 mph93%30.36 "HgN/A
5:20 am25 °FPassing clouds.5 mph93%30.36 "HgN/A
4:20 am23 °FPassing clouds.3 mph93%30.36 "HgN/A
3:20 am19 °FPassing clouds.1 mph93%30.36 "HgN/A
2:20 am19 °FPassing clouds.1 mph100%30.36 "HgN/A
1:20 am19 °FPassing clouds.2 mph93%30.33 "HgN/A
12:20 am19 °FPassing clouds.No wind93%30.33 "HgN/A
11:20 pm
Mon, Dec 5
19 °FPassing clouds.1 mph93%30.33 "HgN/A
10:20 pm19 °FPassing clouds.No wind93%30.33 "HgN/A
9:20 pm19 °FPassing clouds.No wind93%30.30 "HgN/A
8:20 pm21 °FFog.1 mph93%30.30 "Hg3 mi
7:20 pm21 °FFog.1 mph100%30.30 "Hg4 mi
Weather by CustomWeather, © 2016

See weather overviewHow to use our weather pages